,

(GMT )
Nanaimo

Weather History for CYCD - November, 2012

Change the Weather History Date:

Thursday, November 15, 2012

  Actual Average Record
Temperature  
Mean Temperature 32 °F -  
Max Temperature 44 °F 46 °F 59 °F (1998)
Min Temperature 19 °F 35 °F 10 °F (2014)
Degree Days  
Heating Degree Days 34    
Moisture  
Dew Point 37 °F    
Average Humidity 84    
Maximum Humidity 100    
Minimum Humidity 65    
Precipitation  
Precipitation 0.00 in - - ()
Sea Level Pressure  
Sea Level Pressure 30.16 in    
Wind  
Wind Speed 2 mph ()    
Max Wind Speed 7 mph    
Max Gust Speed -    
Visibility 17.2 miles    
Events Fog    
Averages and records for this station are not official NWS values.
T = Trace of Precipitation, MM = Missing Value Source: Averaged Metar Reports

Daily Weather History Graph

Daily Weather History Graph

Search for Another Location

Airport or City:

Trip Planner

Search our weather history database for the weather conditions in past years. The results will help you decide how hot, cold, wet, or windy it might be!

Date:

Astronomy

Nov. 15, 2012 Rise Set
Actual Time 7:26 AM PST 4:33 PM PST
Civil Twilight 6:51 AM PST 5:08 PM PST
Nautical Twilight 6:12 AM PST 5:47 PM PST
Astronomical Twilight 5:35 AM PST 6:24 PM PST
Moon 9:34 AM PST (11/15) 6:25 PM PST (11/15)
Length of Visible Light 10h 17m
Length of Day
9h 07m
Waxing Crescent, 5% of the Moon is Illuminated
Nov 15
Waxing Crescent
Nov 20
First Quarter
Nov 28
Full
Dec 6
Last Quarter
Dec 13
New

Hourly Weather History & Observations

Time (PST) Temp. Windchill Dew Point Humidity Pressure Visibility Wind Dir Wind Speed Gust Speed Precip Events Conditions
4:00 AM 33 °F - 29 °F 77% 30.58 in - ENE 5.8 mph - -  
6:00 AM 42.8 °F - 39.2 °F 87% 30.22 in 15.0 mi East 2.3 mph - N/A   Overcast
7:00 AM 42.8 °F - 39.2 °F 87% 30.20 in 15.0 mi Calm Calm - N/A   Overcast
8:00 AM 42.8 °F 40.1 °F 39.2 °F 87% 30.19 in 15.0 mi West 4.6 mph - N/A   Mostly Cloudy
9:00 AM 42.8 °F - 39.2 °F 87% 30.18 in 15.0 mi Calm Calm - N/A   Mostly Cloudy
10:00 AM 36 °F - 29 °F 65% 30.48 in - East 6.9 mph - -  
10:00 AM 44.6 °F - 41.0 °F 87% 30.16 in 15.0 mi Calm Calm - N/A   Mostly Cloudy
11:00 AM 44.6 °F - 41.0 °F 87% 30.14 in 15.0 mi Calm Calm - N/A   Overcast
12:00 PM 46.4 °F - 39.2 °F 76% 30.11 in 15.0 mi North 2.3 mph - N/A   Mostly Cloudy
1:00 PM 48.2 °F - 39.2 °F 71% 30.07 in 20.0 mi Calm Calm - N/A   Mostly Cloudy
2:00 PM 48.2 °F - 41.0 °F 76% 30.06 in 20.0 mi NNE 2.3 mph - N/A   Mostly Cloudy
3:00 PM 50.0 °F - 39.2 °F 66% 30.04 in 20.0 mi NNW 2.3 mph - N/A   Mostly Cloudy
4:00 PM 32 °F - 29 °F 82% 30.40 in - SE 3.5 mph - -  
4:00 PM 44.6 °F 43.1 °F 41.0 °F 87% 30.03 in 20.0 mi NNE 3.5 mph - N/A   Mostly Cloudy
5:00 PM 42.8 °F 41.1 °F 41.0 °F 93% 30.01 in 20.0 mi West 3.5 mph - N/A   Mostly Cloudy
6:00 PM 41.0 °F - 39.2 °F 93% 29.99 in 20.0 mi NW 2.3 mph - N/A   Mostly Cloudy
7:00 PM 39.2 °F - 39.2 °F 100% 29.98 in 20.0 mi Calm Calm - N/A   Mostly Cloudy
8:00 PM 37.4 °F - 37.4 °F 100% 29.99 in 15.0 mi Calm Calm - N/A Fog Shallow Fog
9:00 PM 37.4 °F - 35.6 °F 93% 29.98 in 15.0 mi West 2.3 mph - N/A Fog Shallow Fog
10:00 PM 32 °F - 29 °F 86% 30.31 in - SW 4.6 mph - -